Location: Bruneau Dunes Observatory
(42.9024°N, 115.6902°W)
Time: 21:27:42
(UTC-06:00)

Daily predictions for brighter satellites

Satellite Brightness Start Highest point End
(mag) Time Altitude Azimuth Time Altitude Azimuth Time Altitude Azimuth
Cosmos 2237 Rocket 2.7 19:46:20 10° SSW 19:52:00 69° WNW 19:57:41 10° NNE
CZ-4C R/B 2.7 19:47:06 10° SW 19:52:24 65° NW 19:58:26 10° NNE
CZ-2C R/B 3.8 19:49:12 10° S 19:53:56 44° W 19:58:32 10° NNW
ATLAS 5 CENTAUR R/B 2.6 19:51:12 10° S 19:55:23 31° ESE 19:59:51 10° NE
Atlas Centaur 2 4.5 19:49:22 10° WSW 19:56:25 29° SSW 20:03:16 10° SE
Cosmos 1766 3.6 19:53:27 10° SSE 19:57:13 45° E 20:01:03 10° NNE
Cosmos 1464 Rocket 4.3 19:51:52 10° SSE 19:57:44 45° E 20:03:34 10° NNE
Cosmos-2242 4.3 19:55:35 10° SE 19:58:52 21° E 20:02:11 10° NE
ATLAS 3B R/B 4.1 19:51:46 10° WSW 19:58:56 43° NW 20:05:53 10° NNE
FREGAT/IRIS 3.1 20:01:35 10° SE 20:04:30 41° ENE 20:07:27 10° N
Cosmos 1452 Rocket 3.9 20:00:47 10° N 20:05:48 43° ENE 20:10:47 10° SE
ATLAS CENTAUR R/B 2.7 20:04:31 10° NW 20:08:30 41° WSW 20:12:09 10° S
SKYMED 2 4.0 20:05:29 10° N 20:09:49 68° WNW 20:14:07 10° SSW
SL-16 R/B 2.2 20:06:28 10° SSW 20:12:09 79° ESE 20:17:52 10° NNE
Cosmos 1437 3.6 20:09:23 10° NNW 20:12:36 55° W 20:15:48 10° S
Cosmos 1408 Rocket 3.8 20:10:06 10° N 20:14:20 48° ENE 20:18:30 10° SSE
Cosmos 1544 4.3 20:13:56 10° SE 20:16:50 22° E 20:19:46 10° NE
NOSS 3-2 (A) 3.5 20:11:49 10° SSW 20:17:52 78° SE 20:24:31 10° NE
Cosmos 1378 3.1 20:15:46 10° N 20:19:30 87° W 20:23:14 10° S
Cosmos 1953 2.7 20:19:22 10° SSE 20:23:06 40° E 20:26:51 10° NNE
METEOR-M 4.1 20:18:59 10° SSE 20:24:17 68° ENE 20:29:37 10° N
Meteor 1-28 Rocket 3.1 20:22:51 10° NNE 20:26:36 89° ESE 20:30:19 10° SSW
Cosmos 1805 3.5 20:23:42 10° SSE 20:27:27 44° E 20:31:14 10° NNE
H-2A R/B 4.0 20:25:26 15° ESE 20:27:40 24° ENE 20:30:48 10° NNE
SAR-Lupe-4 4.5 20:25:25 10° S 20:28:53 51° W 20:32:23 10° NNW
Cosmos 2219 Rocket 4.5 20:25:09 10° WSW 20:29:43 25° NW 20:34:20 10° N
Abrixas 4.0 20:29:17 10° S 20:31:30 19° SE 20:31:53 19° SE
Cosmos 1346 3.9 20:29:38 10° NNE 20:32:19 30° ENE 20:33:28 22° ESE
Resurs 1-3 3.7 20:28:59 10° SSE 20:33:16 54° ENE 20:37:34 10° N
ATLAS CENTAUR R/B 3.7 20:28:29 10° SW 20:33:32 80° SE 20:50:13 10° NE
Resurs 01 Rocket 1.6 20:29:52 10° SSE 20:34:17 73° ENE 20:38:45 10° N
FENGYUN 3A 4.0 20:30:43 10° SE 20:35:46 44° ENE 20:40:53 10° N
TELKOM 3 4.1 20:33:12 10° NW 20:35:52 34° NNE 20:36:37 26° ENE
ASTEX 1 4.0 20:32:54 10° NNE 20:37:22 34° E 20:41:47 10° SSE
Cosmos 1743 Rocket 3.8 20:38:29 10° N 20:42:47 46° ENE 20:46:46 11° SSE
Helios 1A 2.9 20:40:02 10° SSE 20:44:13 83° ENE 20:48:28 10° NNW
Spot 2 Rocket 3.5 20:40:32 10° SSE 20:45:35 86° W 20:50:40 10° NNW
Cosmos 1269 Rocket 4.3 20:41:17 10° S 20:46:16 45° ESE 20:51:16 10° NNE
Cosmos 1048 Rocket 4.4 20:43:05 10° S 20:48:00 40° ESE 20:52:52 10° NE
Cosmos 1470 3.4 20:49:04 27° ESE 20:50:02 31° E 20:53:30 10° NNE
CENTAUR R/B 3.1 20:47:06 10° S 20:52:15 30° ESE 20:57:54 10° NE
Cosmos 2369 Rocket 2.9 20:48:46 10° N 20:53:56 35° ENE 20:56:06 26° E
GPS 2-04 Rocket1 4.4 20:52:10 10° SSW 20:54:14 16° SSE 20:54:14 16° SSE
Cosmos 1943 3.9 20:50:44 10° SSE 20:55:31 29° ESE 21:00:18 10° NE
NOSS 3-2 (C) 3.7 20:50:12 10° SW 20:56:17 75° NW 21:03:00 10° NE
Envisat 4.3 20:56:31 21° ENE 20:56:43 21° ENE 21:00:26 10° NNE
Cosmos 1943 Rocket 3.7 20:53:15 10° N 20:57:10 19° NE 20:58:12 18° ENE
Cosmos 1733 4.4 20:59:28 25° NE 20:59:28 25° NE 21:01:38 10° NNE
Cosmos 1603 3.6 20:53:49 10° SSW 20:59:30 73° ESE 21:05:16 10° NNE
Cosmos 724 4.2 20:54:29 10° SSW 21:00:24 80° ESE 21:06:31 10° NE
GP-B 3.7 20:56:51 10° NNE 21:00:54 33° E 21:01:03 33° E
Nadezhda 4 Rocket 3.9 20:58:38 10° N 21:04:57 81° E 21:11:10 10° S
BREEZE-M DEB (TANK) 4.0 20:50:27 10° W 21:05:07 70° N 21:07:43 29° ENE
Cosmos 1758 3.9 21:01:27 10° SSW 21:05:28 60° W 21:09:34 10° N
ISS -1.4 21:04:43 10° SSW 21:06:00 19° S 21:06:00 19° S
Cosmos 1674 2.6 21:06:44 10° N 21:10:36 68° E 21:11:36 46° SE
Cosmos 1092 Rocket 3.9 21:05:50 10° N 21:12:03 68° E 21:17:09 15° SSE
OAO 3 Rocket 4.2 21:13:23 10° WSW 21:17:35 31° S 21:18:26 29° SSE
Meteor 1-29 4.2 21:16:04 10° N 21:19:25 43° WNW 21:22:44 10° SW
Helios 1B rocket 3.9 21:20:00 10° N 21:23:49 38° WNW 21:27:38 10° SW
H-2A R/B 4.2 21:26:03 14° NNE 21:26:03 14° NNE 21:27:12 10° NNE
ALOS 2.7 21:21:06 11° S 21:25:35 61° W 21:30:14 10° NNW
Cosmos 2026 Rocket 4.1 21:20:28 10° N 21:26:22 49° ENE 21:27:32 44° ESE
Cosmos 1634 Rocket 3.9 21:21:43 10° S 21:27:53 65° E 21:34:02 10° NNE
USA 215 3.4 21:21:40 10° NE 21:28:12 76° NW 21:34:43 10° WSW
Meteor 1-11 4.5 21:23:54 10° N 21:29:31 48° ENE 21:29:58 47° E
CZ-4B DEB 4.2 21:30:15 29° SW 21:31:15 38° W 21:34:21 10° NNW
ERS-1 Rocket 3.2 21:35:10 48° ENE 21:35:10 48° ENE 21:39:41 10° N
SeaSat 1 2.3 21:30:29 10° NNE 21:35:25 66° ESE 21:40:19 10° SSW
Cosmos 1110 Rocket 4.3 21:33:58 10° N 21:38:51 49° NE 21:38:51 49° NE
ATLAS 5 CENTAUR R/B 3.2 21:35:24 10° WSW 21:39:56 38° NW 21:44:52 10° NNE
Cosmos 2151 3.5 21:43:21 10° N 21:46:34 51° N 21:46:34 51° N
Cosmos 2195 Rocket 4.4 21:41:50 10° N 21:48:12 83° E 21:50:08 48° SSE
Cosmos 1842 Rocket 4.5 21:47:46 10° SSW 21:51:55 46° WNW 21:56:09 10° N
SL-8 R/B 4.2 21:54:22 10° WSW 21:58:06 55° WSW 21:58:06 55° WSW
SL-24 R/B - RUBIN 2 4.5 22:03:19 10° NNW 22:09:51 70° NE 22:09:51 70° NE
Cosmos 1331 Rocket 4.5 22:07:52 10° NNW 22:12:03 56° NNW 22:12:03 56° NNW
Cosmos 839 Rocket 4.4 22:13:03 10° NW 22:20:34 65° WSW 22:21:24 60° SSW
Envisat 4.2 22:36:44 40° NW 22:36:44 40° NW 22:40:20 10° NNW
Cosmos 2369 Rocket 3.4 22:32:48 10° NW 22:37:56 36° WSW 22:37:56 36° WSW
Cosmos 1943 4.2 22:34:03 10° SW 22:39:22 42° WNW 22:44:42 10° NNE
H-2A R/B 4.4 22:43:41 14° N 22:43:41 14° N 22:44:24 10° N
Cosmos 1943 Rocket 3.1 22:35:57 10° NNW 22:39:43 43° NW 22:39:43 43° NW
CENTAUR R/B 3.1 22:36:27 10° SW 22:42:28 54° NW 22:49:18 10° NNE
CZ-3A R/B 4.4 22:23:13 10° SSW 22:53:14 69° SSE 22:53:14 69° SSE
